Torna al catalogo

XINGWANG JISHU SW 10-02

AttivoRadioamatoreVLEO
NORAD 69321·PAYLOAD·🇨🇳 China
Questo nome del satellite non è ancora stato confermato da fonti ufficiali.

Lanciato May 30, 2026 da Xichang Satellite Launch Center

Loading…

Prossimi Passaggi (prossime 24 ore)

TLE

AggiornatoSource: Space-Track

Epoca: Sep 14, 2026, 15:00 UTC

1 69321U 26120B   26257.62566416  .00005399  00000-0  17951-3 0  9992
2 69321  54.9980 346.1869 0008973 160.0690 200.0687 15.32779533 16447

Traccia XINGWANG JISHU SW 10-02 in tempo reale con AllMySat

Download on the App Store